This is the latest recevied weather packets stored in our database for station/object IW1RCO-13. If no packets are shown the sender has not sent any weather packets the latest 10 day(s).
| Time | Temp. | Humidity | Pressure | Rain* | Wind** | Luminosity | Snow |
|---|---|---|---|---|---|---|---|
| 1788254369 | 26.11° C | 67% | 1017.2 hPa | - | - | - | - |
| 1788253769 | 26.11° C | 65% | 1018.1 hPa | - | - | - | - |
| 1788253472 | 25.56° C | 69% | 1016.5 hPa | - | - | - | - |
| 1788253169 | 25.56° C | 66% | 1016.7 hPa | - | - | - | - |
| 1788252872 | 25.56° C | 67% | 1018.4 hPa | - | - | - | - |
| 1788252568 | 26.11° C | 68% | 1016.7 hPa | - | - | - | - |
| 1788252272 | 25.56° C | 68% | 1016.9 hPa | - | - | - | - |
| 1788251968 | 25.56° C | 69% | 1016.7 hPa | - | - | - | - |
| 1788251671 | 25.56° C | 69% | 1016.5 hPa | - | - | - | - |
| 1788251368 | 25° C | 70% | 1016.9 hPa | - | - | - | - |
| 1788251071 | 24.44° C | 71% | 1016.8 hPa | - | - | - | - |
| 1788250768 | 25° C | 71% | 1017.1 hPa | - | - | - | - |
| 1788250471 | 24.44° C | 72% | 1017.5 hPa | - | - | - | - |
| 1788250167 | 24.44° C | 73% | 1017 hPa | - | - | - | - |
| 1788249871 | 23.89° C | 74% | 1017.8 hPa | - | - | - | - |
| 1788249567 | 23.89° C | 74% | 1017.9 hPa | - | - | - | - |
| 1788249270 | 23.89° C | 76% | 1017.4 hPa | - | - | - | - |
| 1788248967 | 23.89° C | 76% | 1016.7 hPa | - | - | - | - |
| 1788248670 | 23.33° C | 77% | 1017 hPa | - | - | - | - |
| 1788248367 | 22.78° C | 78% | 1017 hPa | - | - | - | - |
| 1788248070 | 22.78° C | 78% | 1016.9 hPa | - | - | - | - |
| 1788247766 | 22.22° C | 80% | 1016.5 hPa | - | - | - | - |
| 1788247469 | 21.67° C | 81% | 1017.3 hPa | - | - | - | - |
| 1788247166 | 21.67° C | 82% | 1017 hPa | - | - | - | - |
| 1788246869 | 21.11° C | 82% | 1016.7 hPa | - | - | - | - |
* Rain since midnight (hover to see other rain measurements)
** Current wind speed in m/s (hover to see current wind gust speed)